owner,sensor,date,latitude,longitude,vertical_datum,sea_water_practical_salinity,qcFlag 
TABS,ioos:station:wmo:42051:1,2011-05-09T22:30:00Z,29.6350,-93.6417,2.0,24.902,11111222 
TABS,ioos:station:wmo:42051:1,2011-05-09T23:00:00Z,29.6350,-93.6417,2.0,24.8758,11111222 
TABS,ioos:station:wmo:42051:1,2011-05-09T23:30:00Z,29.6350,-93.6417,2.0,24.7891,11111222 
TABS,ioos:station:wmo:42051:1,2011-05-10T00:00:00Z,29.6350,-93.6417,2.0,24.7753,11111222 
TABS,ioos:station:wmo:42051:1,2011-05-10T00:30:00Z,29.6350,-93.6417,2.0,24.8022,11111222 
TABS,ioos:station:wmo:42051:1,2011-05-10T01:00:00Z,29.6350,-93.6417,2.0,24.8158,11111222 
TABS,ioos:station:wmo:42051:1,2011-05-10T01:30:00Z,29.6350,-93.6417,2.0,24.8278,11111222 
TABS,ioos:station:wmo:42051:1,2011-05-10T02:00:00Z,29.6350,-93.6417,2.0,24.811,11111222 
TABS,ioos:station:wmo:42051:1,2011-05-10T02:30:00Z,29.6350,-93.6417,2.0,24.0295,11111222 
TABS,ioos:station:wmo:42051:1,2011-05-10T03:00:00Z,29.6350,-93.6417,2.0,23.8753,11111222 
TABS,ioos:station:wmo:42051:1,2011-05-10T03:30:00Z,29.6350,-93.6417,2.0,23.7891,11111222 
TABS,ioos:station:wmo:42051:1,2011-05-10T04:00:00Z,29.6350,-93.6417,2.0,23.5259,11111222 
TABS,ioos:station:wmo:42051:1,2011-05-10T04:30:00Z,29.6350,-93.6417,2.0,23.4142,11111222 
TABS,ioos:station:wmo:42051:1,2011-05-10T05:00:00Z,29.6350,-93.6417,2.0,23.1553,11111222 
TABS,ioos:station:wmo:42051:1,2011-05-10T05:30:00Z,29.6350,-93.6417,2.0,22.9237,11111222 
TABS,ioos:station:wmo:42051:1,2011-05-10T06:00:00Z,29.6350,-93.6417,2.0,22.6145,11111222 
TABS,ioos:station:wmo:42051:1,2011-05-10T06:30:00Z,29.6350,-93.6417,2.0,22.6867,11111222 
TABS,ioos:station:wmo:42051:1,2011-05-10T07:00:00Z,29.6350,-93.6417,2.0,22.6585,11111222 
TABS,ioos:station:wmo:42051:1,2011-05-10T07:30:00Z,29.6350,-93.6417,2.0,22.4531,11111222 
TABS,ioos:station:wmo:42051:1,2011-05-10T08:00:00Z,29.6350,-93.6417,2.0,22.2853,11111222 
TABS,ioos:station:wmo:42051:1,2011-05-10T08:30:00Z,29.6350,-93.6417,2.0,22.2184,11111222 
TABS,ioos:station:wmo:42051:1,2011-05-10T09:00:00Z,29.6350,-93.6417,2.0,22.1156,11111222 
TABS,ioos:station:wmo:42051:1,2011-05-10T09:30:00Z,29.6350,-93.6417,2.0,21.979,11111222 
TABS,ioos:station:wmo:42051:1,2011-05-10T10:00:00Z,29.6350,-93.6417,2.0,21.9842,11111222 
TABS,ioos:station:wmo:42051:1,2011-05-10T10:30:00Z,29.6350,-93.6417,2.0,22.0311,11111222 
TABS,ioos:station:wmo:42051:1,2011-05-10T11:00:00Z,29.6350,-93.6417,2.0,22.1123,11111222 
TABS,ioos:station:wmo:42051:1,2011-05-10T11:30:00Z,29.6350,-93.6417,2.0,22.3042,11111222 
TABS,ioos:station:wmo:42051:1,2011-05-10T12:00:00Z,29.6350,-93.6417,2.0,22.5915,11111222 
TABS,ioos:station:wmo:42051:1,2011-05-10T12:30:00Z,29.6350,-93.6417,2.0,22.691,11111222 
TABS,ioos:station:wmo:42051:1,2011-05-10T13:00:00Z,29.6350,-93.6417,2.0,22.8443,11111222 
TABS,ioos:station:wmo:42051:1,2011-05-10T13:30:00Z,29.6350,-93.6417,2.0,23.0397,11111222 
TABS,ioos:station:wmo:42051:1,2011-05-10T14:00:00Z,29.6350,-93.6417,2.0,23.0197,11111222 
TABS,ioos:station:wmo:42051:1,2011-05-10T14:30:00Z,29.6350,-93.6417,2.0,22.9197,11111222 
TABS,ioos:station:wmo:42051:1,2011-05-10T15:00:00Z,29.6350,-93.6417,2.0,22.9417,11111222 
TABS,ioos:station:wmo:42051:1,2011-05-10T15:30:00Z,29.6350,-93.6417,2.0,23.0495,11111222 
TABS,ioos:station:wmo:42051:1,2011-05-10T16:00:00Z,29.6350,-93.6417,2.0,23.212,11111222 
TABS,ioos:station:wmo:42051:1,2011-05-10T16:30:00Z,29.6350,-93.6417,2.0,23.3048,11111222 
TABS,ioos:station:wmo:42051:1,2011-05-10T17:00:00Z,29.6350,-93.6417,2.0,22.7902,11111222 
TABS,ioos:station:wmo:42051:1,2011-05-10T17:30:00Z,29.6350,-93.6417,2.0,23.3626,11111222 
TABS,ioos:station:wmo:42051:1,2011-05-10T18:00:00Z,29.6350,-93.6417,2.0,23.3778,11111222 
TABS,ioos:station:wmo:42051:1,2011-05-10T18:30:00Z,29.6350,-93.6417,2.0,23.6103,11111222 
TABS,ioos:station:wmo:42051:1,2011-05-10T19:00:00Z,29.6350,-93.6417,2.0,24.3362,11111222 
TABS,ioos:station:wmo:42051:1,2011-05-10T19:30:00Z,29.6350,-93.6417,2.0,24.881,11111222 
TABS,ioos:station:wmo:42051:1,2011-05-10T20:00:00Z,29.6350,-93.6417,2.0,24.5946,11111222 
TABS,ioos:station:wmo:42051:1,2011-05-10T20:30:00Z,29.6350,-93.6417,2.0,24.6688,11111222 
TABS,ioos:station:wmo:42051:1,2011-05-10T21:00:00Z,29.6350,-93.6417,2.0,24.6234,11111222 
TABS,ioos:station:wmo:42051:1,2011-05-10T21:30:00Z,29.6350,-93.6417,2.0,24.5482,11111222 
TABS,ioos:station:wmo:42051:1,2011-05-10T22:00:00Z,29.6350,-93.6417,2.0,24.5295,11111222 
TABS,ioos:station:wmo:42051:1,2011-05-10T22:30:00Z,29.6350,-93.6417,2.0,24.442,11111222 
TABS,ioos:station:wmo:42051:1,2011-05-10T23:00:00Z,29.6350,-93.6417,2.0,24.3347,11111222 
TABS,ioos:station:wmo:42051:1,2011-05-10T23:30:00Z,29.6350,-93.6417,2.0,24.2952,11111222 
TABS,ioos:station:wmo:42051:1,2011-05-11T00:00:00Z,29.6350,-93.6417,2.0,24.2412,11111222 
TABS,ioos:station:wmo:42051:1,2011-05-11T00:30:00Z,29.6350,-93.6417,2.0,24.1581,11111222 
TABS,ioos:station:wmo:42051:1,2011-05-11T01:00:00Z,29.6350,-93.6417,2.0,23.8786,11111222 
TABS,ioos:station:wmo:42051:1,2011-05-11T01:30:00Z,29.6350,-93.6417,2.0,23.569,11111222 
TABS,ioos:station:wmo:42051:1,2011-05-11T02:00:00Z,29.6350,-93.6417,2.0,23.2215,11111222 
TABS,ioos:station:wmo:42051:1,2011-05-11T02:30:00Z,29.6350,-93.6417,2.0,22.6547,11111222 
TABS,ioos:station:wmo:42051:1,2011-05-11T03:00:00Z,29.6350,-93.6417,2.0,22.3298,11111222 
TABS,ioos:station:wmo:42051:1,2011-05-11T03:30:00Z,29.6350,-93.6417,2.0,22.2606,11111222 
TABS,ioos:station:wmo:42051:1,2011-05-11T04:00:00Z,29.6350,-93.6417,2.0,21.9217,11111222 
TABS,ioos:station:wmo:42051:1,2011-05-11T04:30:00Z,29.6350,-93.6417,2.0,22.1034,11111222 
TABS,ioos:station:wmo:42051:1,2011-05-11T05:00:00Z,29.6350,-93.6417,2.0,22.0857,11111222 
TABS,ioos:station:wmo:42051:1,2011-05-11T05:30:00Z,29.6350,-93.6417,2.0,21.7826,11111222 
TABS,ioos:station:wmo:42051:1,2011-05-11T06:00:00Z,29.6350,-93.6417,2.0,21.5103,11111222 
TABS,ioos:station:wmo:42051:1,2011-05-11T06:30:00Z,29.6350,-93.6417,2.0,21.2964,11111222 
TABS,ioos:station:wmo:42051:1,2011-05-11T07:00:00Z,29.6350,-93.6417,2.0,21.1401,11111222 
TABS,ioos:station:wmo:42051:1,2011-05-11T07:30:00Z,29.6350,-93.6417,2.0,21.2123,11111222 
TABS,ioos:station:wmo:42051:1,2011-05-11T08:00:00Z,29.6350,-93.6417,2.0,21.2651,11111222 
TABS,ioos:station:wmo:42051:1,2011-05-11T08:30:00Z,29.6350,-93.6417,2.0,21.3236,11111222 
TABS,ioos:station:wmo:42051:1,2011-05-11T09:00:00Z,29.6350,-93.6417,2.0,21.0518,11111222 
TABS,ioos:station:wmo:42051:1,2011-05-11T09:30:00Z,29.6350,-93.6417,2.0,21.1291,11111222 
TABS,ioos:station:wmo:42051:1,2011-05-11T10:00:00Z,29.6350,-93.6417,2.0,20.8489,11111222 
TABS,ioos:station:wmo:42051:1,2011-05-11T10:30:00Z,29.6350,-93.6417,2.0,20.4027,11111222 
TABS,ioos:station:wmo:42051:1,2011-05-11T11:00:00Z,29.6350,-93.6417,2.0,20.3268,11111222 
TABS,ioos:station:wmo:42051:1,2011-05-11T11:30:00Z,29.6350,-93.6417,2.0,20.4503,11111222 
TABS,ioos:station:wmo:42051:1,2011-05-11T12:00:00Z,29.6350,-93.6417,2.0,20.4646,11111222 
TABS,ioos:station:wmo:42051:1,2011-05-11T12:30:00Z,29.6350,-93.6417,2.0,20.5875,11111222 
TABS,ioos:station:wmo:42051:1,2011-05-11T13:00:00Z,29.6350,-93.6417,2.0,20.8324,11111222 
TABS,ioos:station:wmo:42051:1,2011-05-11T13:30:00Z,29.6350,-93.6417,2.0,21.1258,11111222 
TABS,ioos:station:wmo:42051:1,2011-05-11T14:00:00Z,29.6350,-93.6417,2.0,21.6017,11111222 
TABS,ioos:station:wmo:42051:1,2011-05-11T14:30:00Z,29.6350,-93.6417,2.0,21.9167,11111222 
TABS,ioos:station:wmo:42051:1,2011-05-11T15:00:00Z,29.6350,-93.6417,2.0,23.5456,11111222 
TABS,ioos:station:wmo:42051:1,2011-05-11T15:30:00Z,29.6350,-93.6417,2.0,23.8051,11111222 
TABS,ioos:station:wmo:42051:1,2011-05-11T16:00:00Z,29.6350,-93.6417,2.0,23.8405,11111222 
TABS,ioos:station:wmo:42051:1,2011-05-11T16:30:00Z,29.6350,-93.6417,2.0,23.9092,11111222 
TABS,ioos:station:wmo:42051:1,2011-05-11T17:00:00Z,29.6350,-93.6417,2.0,24.0461,11111222 
TABS,ioos:station:wmo:42051:1,2011-05-11T17:30:00Z,29.6350,-93.6417,2.0,23.9148,11111222 
TABS,ioos:station:wmo:42051:1,2011-05-11T18:00:00Z,29.6350,-93.6417,2.0,23.5794,11111222 
TABS,ioos:station:wmo:42051:1,2011-05-11T18:30:00Z,29.6350,-93.6417,2.0,22.1797,11111222 
TABS,ioos:station:wmo:42051:1,2011-05-11T19:00:00Z,29.6350,-93.6417,2.0,21.5862,11111222 
TABS,ioos:station:wmo:42051:1,2011-05-11T19:30:00Z,29.6350,-93.6417,2.0,21.2814,11111222 
TABS,ioos:station:wmo:42051:1,2011-05-11T20:00:00Z,29.6350,-93.6417,2.0,21.3818,11111222 
TABS,ioos:station:wmo:42051:1,2011-05-11T20:30:00Z,29.6350,-93.6417,2.0,22.5037,11111222 
TABS,ioos:station:wmo:42051:1,2011-05-11T21:00:00Z,29.6350,-93.6417,2.0,22.3496,11111222 
TABS,ioos:station:wmo:42051:1,2011-05-11T21:30:00Z,29.6350,-93.6417,2.0,22.7694,11111222 
TABS,ioos:station:wmo:42051:1,2011-05-11T22:00:00Z,29.6350,-93.6417,2.0,23.4973,11111222 
TABS,ioos:station:wmo:42051:1,2011-05-11T22:30:00Z,29.6350,-93.6417,2.0,23.7964,11111222 
TABS,ioos:station:wmo:42051:1,2011-05-11T23:00:00Z,29.6350,-93.6417,2.0,22.8775,11111222 
TABS,ioos:station:wmo:42051:1,2011-05-11T23:30:00Z,29.6350,-93.6417,2.0,22.1892,11111222 
TABS,ioos:station:wmo:42051:1,2011-05-12T00:00:00Z,29.6350,-93.6417,2.0,22.4305,11111222 
TABS,ioos:station:wmo:42051:1,2011-05-12T00:30:00Z,29.6350,-93.6417,2.0,22.0206,11111222 
TABS,ioos:station:wmo:42051:1,2011-05-12T01:00:00Z,29.6350,-93.6417,2.0,21.365,11111222 
TABS,ioos:station:wmo:42051:1,2011-05-12T01:30:00Z,29.6350,-93.6417,2.0,20.7462,11111222 
TABS,ioos:station:wmo:42051:1,2011-05-12T02:00:00Z,29.6350,-93.6417,2.0,21.2878,11111222 
TABS,ioos:station:wmo:42051:1,2011-05-12T02:30:00Z,29.6350,-93.6417,2.0,22.163,11111222 
TABS,ioos:station:wmo:42051:1,2011-05-12T03:00:00Z,29.6350,-93.6417,2.0,21.8141,11111222 
TABS,ioos:station:wmo:42051:1,2011-05-12T03:30:00Z,29.6350,-93.6417,2.0,22.7041,11111222 
TABS,ioos:station:wmo:42051:1,2011-05-12T04:00:00Z,29.6350,-93.6417,2.0,23.7516,11111222 
TABS,ioos:station:wmo:42051:1,2011-05-12T04:30:00Z,29.6350,-93.6417,2.0,24.9723,11111222 
TABS,ioos:station:wmo:42051:1,2011-05-12T05:00:00Z,29.6350,-93.6417,2.0,25.1808,11111222 
TABS,ioos:station:wmo:42051:1,2011-05-12T05:30:00Z,29.6350,-93.6417,2.0,25.6488,11111222 
TABS,ioos:station:wmo:42051:1,2011-05-12T06:00:00Z,29.6350,-93.6417,2.0,25.9103,11111222 
TABS,ioos:station:wmo:42051:1,2011-05-12T06:30:00Z,29.6350,-93.6417,2.0,25.9483,11111222 
TABS,ioos:station:wmo:42051:1,2011-05-12T07:00:00Z,29.6350,-93.6417,2.0,25.964,11111222 
TABS,ioos:station:wmo:42051:1,2011-05-12T07:30:00Z,29.6350,-93.6417,2.0,26.0478,11111222 
TABS,ioos:station:wmo:42051:1,2011-05-12T08:00:00Z,29.6350,-93.6417,2.0,26.1256,11111222 
TABS,ioos:station:wmo:42051:1,2011-05-12T08:30:00Z,29.6350,-93.6417,2.0,25.9442,11111222 
TABS,ioos:station:wmo:42051:1,2011-05-12T09:00:00Z,29.6350,-93.6417,2.0,26.0329,11111222 
TABS,ioos:station:wmo:42051:1,2011-05-12T09:30:00Z,29.6350,-93.6417,2.0,24.7459,11111222 
TABS,ioos:station:wmo:42051:1,2011-05-12T10:00:00Z,29.6350,-93.6417,2.0,24.862,11111222 
TABS,ioos:station:wmo:42051:1,2011-05-12T10:30:00Z,29.6350,-93.6417,2.0,24.301,11111222 
TABS,ioos:station:wmo:42051:1,2011-05-12T11:00:00Z,29.6350,-93.6417,2.0,23.7469,11111222 
TABS,ioos:station:wmo:42051:1,2011-05-12T11:30:00Z,29.6350,-93.6417,2.0,23.5711,11111222 
TABS,ioos:station:wmo:42051:1,2011-05-12T12:00:00Z,29.6350,-93.6417,2.0,23.909,11111222 
TABS,ioos:station:wmo:42051:1,2011-05-12T12:30:00Z,29.6350,-93.6417,2.0,24.2835,11111222 
TABS,ioos:station:wmo:42051:1,2011-05-12T13:00:00Z,29.6350,-93.6417,2.0,22.9134,11111222 
TABS,ioos:station:wmo:42051:1,2011-05-12T13:30:00Z,29.6350,-93.6417,2.0,23.7629,11111222 
TABS,ioos:station:wmo:42051:1,2011-05-12T14:00:00Z,29.6350,-93.6417,2.0,24.3441,11111222 
TABS,ioos:station:wmo:42051:1,2011-05-12T14:30:00Z,29.6350,-93.6417,2.0,22.2206,11111222 
TABS,ioos:station:wmo:42051:1,2011-05-12T15:00:00Z,29.6350,-93.6417,2.0,22.8902,11111222 
TABS,ioos:station:wmo:42051:1,2011-05-12T15:30:00Z,29.6350,-93.6417,2.0,23.9646,11111222 
TABS,ioos:station:wmo:42051:1,2011-05-12T16:00:00Z,29.6350,-93.6417,2.0,24.7162,11111222 
TABS,ioos:station:wmo:42051:1,2011-05-12T16:30:00Z,29.6350,-93.6417,2.0,25.9126,11111222 
TABS,ioos:station:wmo:42051:1,2011-05-12T17:00:00Z,29.6350,-93.6417,2.0,25.3827,11111222 
TABS,ioos:station:wmo:42051:1,2011-05-12T17:30:00Z,29.6350,-93.6417,2.0,25.9965,11111222 
TABS,ioos:station:wmo:42051:1,2011-05-12T18:00:00Z,29.6350,-93.6417,2.0,26.2734,11111222 
TABS,ioos:station:wmo:42051:1,2011-05-12T18:30:00Z,29.6350,-93.6417,2.0,26.3229,11111222 
TABS,ioos:station:wmo:42051:1,2011-05-12T19:00:00Z,29.6350,-93.6417,2.0,26.4834,11111222 
TABS,ioos:station:wmo:42051:1,2011-05-12T19:30:00Z,29.6350,-93.6417,2.0,25.2604,11111222 
TABS,ioos:station:wmo:42051:1,2011-05-12T20:00:00Z,29.6350,-93.6417,2.0,24.3269,11111222 
TABS,ioos:station:wmo:42051:1,2011-05-12T20:30:00Z,29.6350,-93.6417,2.0,24.2351,11111222 
TABS,ioos:station:wmo:42051:1,2011-05-12T21:00:00Z,29.6350,-93.6417,2.0,22.4336,11111222 
TABS,ioos:station:wmo:42051:1,2011-05-12T21:30:00Z,29.6350,-93.6417,2.0,22.2351,11111222 
TABS,ioos:station:wmo:42051:1,2011-05-12T22:00:00Z,29.6350,-93.6417,2.0,21.5158,11111222 
TABS,ioos:station:wmo:42051:1,2011-05-12T22:30:00Z,29.6350,-93.6417,2.0,20.1858,11111222 
TABS,ioos:station:wmo:42051:1,2011-05-12T23:00:00Z,29.6350,-93.6417,2.0,19.2534,11111222 
TABS,ioos:station:wmo:42051:1,2011-05-12T23:30:00Z,29.6350,-93.6417,2.0,19.9708,11111222 
TABS,ioos:station:wmo:42051:1,2011-05-13T00:00:00Z,29.6350,-93.6417,2.0,20.0604,11111222 
TABS,ioos:station:wmo:42051:1,2011-05-13T00:30:00Z,29.6350,-93.6417,2.0,20.2687,11111222 
TABS,ioos:station:wmo:42051:1,2011-05-13T01:00:00Z,29.6350,-93.6417,2.0,20.2181,11111222 
TABS,ioos:station:wmo:42051:1,2011-05-13T01:30:00Z,29.6350,-93.6417,2.0,20.7687,11111222 
TABS,ioos:station:wmo:42051:1,2011-05-13T02:00:00Z,29.6350,-93.6417,2.0,21.548,11111222 
TABS,ioos:station:wmo:42051:1,2011-05-13T02:30:00Z,29.6350,-93.6417,2.0,22.9625,11111222 
TABS,ioos:station:wmo:42051:1,2011-05-13T03:00:00Z,29.6350,-93.6417,2.0,21.4883,11111222 
TABS,ioos:station:wmo:42051:1,2011-05-13T03:30:00Z,29.6350,-93.6417,2.0,23.2482,11111222 
TABS,ioos:station:wmo:42051:1,2011-05-13T04:00:00Z,29.6350,-93.6417,2.0,23.467,11111222 
TABS,ioos:station:wmo:42051:1,2011-05-13T04:30:00Z,29.6350,-93.6417,2.0,24.4565,11111222 
TABS,ioos:station:wmo:42051:1,2011-05-13T05:00:00Z,29.6350,-93.6417,2.0,25.2037,11111222 
TABS,ioos:station:wmo:42051:1,2011-05-13T05:30:00Z,29.6350,-93.6417,2.0,25.2211,11111222 
TABS,ioos:station:wmo:42051:1,2011-05-13T06:00:00Z,29.6350,-93.6417,2.0,25.3808,11111222 
TABS,ioos:station:wmo:42051:1,2011-05-13T06:30:00Z,29.6350,-93.6417,2.0,25.8543,11111222 
TABS,ioos:station:wmo:42051:1,2011-05-13T07:00:00Z,29.6350,-93.6417,2.0,26.368,11111222 
TABS,ioos:station:wmo:42051:1,2011-05-13T07:30:00Z,29.6350,-93.6417,2.0,26.7244,11111222 
TABS,ioos:station:wmo:42051:1,2011-05-13T08:00:00Z,29.6350,-93.6417,2.0,26.9588,11111222 
TABS,ioos:station:wmo:42051:1,2011-05-13T08:30:00Z,29.6350,-93.6417,2.0,26.4243,11111222 
TABS,ioos:station:wmo:42051:1,2011-05-13T09:00:00Z,29.6350,-93.6417,2.0,26.0087,11111222 
TABS,ioos:station:wmo:42051:1,2011-05-13T09:30:00Z,29.6350,-93.6417,2.0,25.8334,11111222 
TABS,ioos:station:wmo:42051:1,2011-05-13T10:00:00Z,29.6350,-93.6417,2.0,25.8671,11111222 
TABS,ioos:station:wmo:42051:1,2011-05-13T10:30:00Z,29.6350,-93.6417,2.0,25.0933,11111222 
TABS,ioos:station:wmo:42051:1,2011-05-13T11:00:00Z,29.6350,-93.6417,2.0,24.7118,11111222 
TABS,ioos:station:wmo:42051:1,2011-05-13T11:30:00Z,29.6350,-93.6417,2.0,24.3438,11111222 
TABS,ioos:station:wmo:42051:1,2011-05-13T12:00:00Z,29.6350,-93.6417,2.0,24.3328,11111222 
TABS,ioos:station:wmo:42051:1,2011-05-13T12:30:00Z,29.6350,-93.6417,2.0,24.2023,11111222 
TABS,ioos:station:wmo:42051:1,2011-05-13T13:00:00Z,29.6350,-93.6417,2.0,24.0131,11111222 
TABS,ioos:station:wmo:42051:1,2011-05-13T13:30:00Z,29.6350,-93.6417,2.0,23.047,11111222 
TABS,ioos:station:wmo:42051:1,2011-05-13T14:00:00Z,29.6350,-93.6417,2.0,21.8949,11111222 
TABS,ioos:station:wmo:42051:1,2011-05-13T14:30:00Z,29.6350,-93.6417,2.0,21.3905,11111222 
TABS,ioos:station:wmo:42051:1,2011-05-13T15:00:00Z,29.6350,-93.6417,2.0,20.738,11111222 
TABS,ioos:station:wmo:42051:1,2011-05-13T15:30:00Z,29.6350,-93.6417,2.0,20.3883,11111222 
TABS,ioos:station:wmo:42051:1,2011-05-13T16:00:00Z,29.6350,-93.6417,2.0,21.7566,11111222 
TABS,ioos:station:wmo:42051:1,2011-05-13T16:30:00Z,29.6350,-93.6417,2.0,20.3548,11111222 
TABS,ioos:station:wmo:42051:1,2011-05-13T17:00:00Z,29.6350,-93.6417,2.0,20.0165,11111222 
TABS,ioos:station:wmo:42051:1,2011-05-13T17:30:00Z,29.6350,-93.6417,2.0,18.3464,11111222 
TABS,ioos:station:wmo:42051:1,2011-05-13T18:00:00Z,29.6350,-93.6417,2.0,16.073,11111222 
TABS,ioos:station:wmo:42051:1,2011-05-13T18:30:00Z,29.6350,-93.6417,2.0,15.8018,11111222 
TABS,ioos:station:wmo:42051:1,2011-05-13T19:00:00Z,29.6350,-93.6417,2.0,14.8476,11111222 
TABS,ioos:station:wmo:42051:1,2011-05-13T19:30:00Z,29.6350,-93.6417,2.0,14.783,11111222 
TABS,ioos:station:wmo:42051:1,2011-05-13T20:00:00Z,29.6350,-93.6417,2.0,14.3034,11111222 
TABS,ioos:station:wmo:42051:1,2011-05-13T20:30:00Z,29.6350,-93.6417,2.0,14.8583,11111222 
TABS,ioos:station:wmo:42051:1,2011-05-13T21:00:00Z,29.6350,-93.6417,2.0,14.6967,11111222 
TABS,ioos:station:wmo:42051:1,2011-05-13T21:30:00Z,29.6350,-93.6417,2.0,13.8559,11111222 
TABS,ioos:station:wmo:42051:1,2011-05-13T22:00:00Z,29.6350,-93.6417,2.0,13.6447,11111222 
TABS,ioos:station:wmo:42051:1,2011-05-13T22:30:00Z,29.6350,-93.6417,2.0,13.6117,11111222 
TABS,ioos:station:wmo:42051:1,2011-05-13T23:00:00Z,29.6350,-93.6417,2.0,13.4805,11111222 
TABS,ioos:station:wmo:42051:1,2011-05-13T23:30:00Z,29.6350,-93.6417,2.0,13.2919,11111222 
TABS,ioos:station:wmo:42051:1,2011-05-14T00:00:00Z,29.6350,-93.6417,2.0,13.488,11111222 
TABS,ioos:station:wmo:42051:1,2011-05-14T00:30:00Z,29.6350,-93.6417,2.0,13.7714,11111222 
TABS,ioos:station:wmo:42051:1,2011-05-14T01:00:00Z,29.6350,-93.6417,2.0,14.1315,11111222 
TABS,ioos:station:wmo:42051:1,2011-05-14T01:30:00Z,29.6350,-93.6417,2.0,13.3215,11111222 
TABS,ioos:station:wmo:42051:1,2011-05-14T02:00:00Z,29.6350,-93.6417,2.0,13.1497,11111222 
TABS,ioos:station:wmo:42051:1,2011-05-14T02:30:00Z,29.6350,-93.6417,2.0,13.3321,11111222 
TABS,ioos:station:wmo:42051:1,2011-05-14T03:00:00Z,29.6350,-93.6417,2.0,13.8936,11111222 
TABS,ioos:station:wmo:42051:1,2011-05-14T03:30:00Z,29.6350,-93.6417,2.0,14.3655,11111222 
TABS,ioos:station:wmo:42051:1,2011-05-14T04:00:00Z,29.6350,-93.6417,2.0,15.3866,11111222 
TABS,ioos:station:wmo:42051:1,2011-05-14T04:30:00Z,29.6350,-93.6417,2.0,16.1167,11111222 
TABS,ioos:station:wmo:42051:1,2011-05-14T05:00:00Z,29.6350,-93.6417,2.0,16.1243,11111222 
TABS,ioos:station:wmo:42051:1,2011-05-14T05:30:00Z,29.6350,-93.6417,2.0,17.222,11111222 
TABS,ioos:station:wmo:42051:1,2011-05-14T06:00:00Z,29.6350,-93.6417,2.0,17.812,11111222 
TABS,ioos:station:wmo:42051:1,2011-05-14T06:30:00Z,29.6350,-93.6417,2.0,18.2977,11111222 
TABS,ioos:station:wmo:42051:1,2011-05-14T07:00:00Z,29.6350,-93.6417,2.0,18.8618,11111222 
TABS,ioos:station:wmo:42051:1,2011-05-14T07:30:00Z,29.6350,-93.6417,2.0,19.2785,11111222 
TABS,ioos:station:wmo:42051:1,2011-05-14T08:00:00Z,29.6350,-93.6417,2.0,19.6248,11111222 
TABS,ioos:station:wmo:42051:1,2011-05-14T08:30:00Z,29.6350,-93.6417,2.0,19.4287,11111222 
TABS,ioos:station:wmo:42051:1,2011-05-14T09:00:00Z,29.6350,-93.6417,2.0,19.4453,11111222 
TABS,ioos:station:wmo:42051:1,2011-05-14T09:30:00Z,29.6350,-93.6417,2.0,19.8653,11111222 
TABS,ioos:station:wmo:42051:1,2011-05-14T10:00:00Z,29.6350,-93.6417,2.0,19.9339,11111222 
TABS,ioos:station:wmo:42051:1,2011-05-14T10:30:00Z,29.6350,-93.6417,2.0,20.0062,11111222 
TABS,ioos:station:wmo:42051:1,2011-05-14T11:00:00Z,29.6350,-93.6417,2.0,20.6444,11111222 
TABS,ioos:station:wmo:42051:1,2011-05-14T11:30:00Z,29.6350,-93.6417,2.0,20.4511,11111222 
TABS,ioos:station:wmo:42051:1,2011-05-14T12:00:00Z,29.6350,-93.6417,2.0,20.742,11111222 
TABS,ioos:station:wmo:42051:1,2011-05-14T12:30:00Z,29.6350,-93.6417,2.0,20.83,11111222 
TABS,ioos:station:wmo:42051:1,2011-05-14T13:00:00Z,29.6350,-93.6417,2.0,21.1037,11111222 
TABS,ioos:station:wmo:42051:1,2011-05-14T13:30:00Z,29.6350,-93.6417,2.0,21.1785,11111222 
TABS,ioos:station:wmo:42051:1,2011-05-14T14:00:00Z,29.6350,-93.6417,2.0,21.0355,11111222 
TABS,ioos:station:wmo:42051:1,2011-05-14T14:30:00Z,29.6350,-93.6417,2.0,21.2978,11111222 
TABS,ioos:station:wmo:42051:1,2011-05-14T15:00:00Z,29.6350,-93.6417,2.0,21.5245,11111222 
TABS,ioos:station:wmo:42051:1,2011-05-14T15:30:00Z,29.6350,-93.6417,2.0,21.5412,11111222 
TABS,ioos:station:wmo:42051:1,2011-05-14T16:00:00Z,29.6350,-93.6417,2.0,21.6773,11111222 
TABS,ioos:station:wmo:42051:1,2011-05-14T16:30:00Z,29.6350,-93.6417,2.0,21.7089,11111222 
TABS,ioos:station:wmo:42051:1,2011-05-14T17:00:00Z,29.6350,-93.6417,2.0,21.7135,11111222 
TABS,ioos:station:wmo:42051:1,2011-05-14T17:30:00Z,29.6350,-93.6417,2.0,21.7663,11111222 
TABS,ioos:station:wmo:42051:1,2011-05-14T18:00:00Z,29.6350,-93.6417,2.0,21.7209,11111222 
TABS,ioos:station:wmo:42051:1,2011-05-14T18:30:00Z,29.6350,-93.6417,2.0,21.7031,11111222 
TABS,ioos:station:wmo:42051:1,2011-05-14T19:00:00Z,29.6350,-93.6417,2.0,21.6894,11111222 
TABS,ioos:station:wmo:42051:1,2011-05-14T19:30:00Z,29.6350,-93.6417,2.0,21.6452,11111222 
TABS,ioos:station:wmo:42051:1,2011-05-14T20:00:00Z,29.6350,-93.6417,2.0,21.5431,11111222 
TABS,ioos:station:wmo:42051:1,2011-05-14T20:30:00Z,29.6350,-93.6417,2.0,21.5597,11111222 
TABS,ioos:station:wmo:42051:1,2011-05-14T21:00:00Z,29.6350,-93.6417,2.0,21.5631,11111222 
TABS,ioos:station:wmo:42051:1,2011-05-14T21:30:00Z,29.6350,-93.6417,2.0,21.5449,11111222 
TABS,ioos:station:wmo:42051:1,2011-05-14T22:00:00Z,29.6350,-93.6417,2.0,21.5492,11111222 
TABS,ioos:station:wmo:42051:1,2011-05-14T22:30:00Z,29.6350,-93.6417,2.0,21.5617,11111222 
TABS,ioos:station:wmo:42051:1,2011-05-14T23:00:00Z,29.6350,-93.6417,2.0,21.5689,11111222 
TABS,ioos:station:wmo:42051:1,2011-05-14T23:30:00Z,29.6350,-93.6417,2.0,21.5845,11111222 
TABS,ioos:station:wmo:42051:1,2011-05-15T00:00:00Z,29.6350,-93.6417,2.0,21.6706,11111222 
TABS,ioos:station:wmo:42051:1,2011-05-15T00:30:00Z,29.6350,-93.6417,2.0,21.692,11111222 
TABS,ioos:station:wmo:42051:1,2011-05-15T01:00:00Z,29.6350,-93.6417,2.0,21.6978,11111222 
TABS,ioos:station:wmo:42051:1,2011-05-15T01:30:00Z,29.6350,-93.6417,2.0,21.7619,11111222 
TABS,ioos:station:wmo:42051:1,2011-05-15T02:00:00Z,29.6350,-93.6417,2.0,21.8869,11111222 
TABS,ioos:station:wmo:42051:1,2011-05-15T02:30:00Z,29.6350,-93.6417,2.0,21.9384,11111222 
TABS,ioos:station:wmo:42051:1,2011-05-15T03:00:00Z,29.6350,-93.6417,2.0,22.1042,11111222 
TABS,ioos:station:wmo:42051:1,2011-05-15T03:30:00Z,29.6350,-93.6417,2.0,22.2202,11111222 
TABS,ioos:station:wmo:42051:1,2011-05-15T04:00:00Z,29.6350,-93.6417,2.0,22.3074,11111222 
TABS,ioos:station:wmo:42051:1,2011-05-15T04:30:00Z,29.6350,-93.6417,2.0,22.3134,11111222 
TABS,ioos:station:wmo:42051:1,2011-05-15T05:00:00Z,29.6350,-93.6417,2.0,22.3221,11111222 
TABS,ioos:station:wmo:42051:1,2011-05-15T05:30:00Z,29.6350,-93.6417,2.0,22.3654,11111222 
TABS,ioos:station:wmo:42051:1,2011-05-15T06:00:00Z,29.6350,-93.6417,2.0,22.4037,11111222 
TABS,ioos:station:wmo:42051:1,2011-05-15T06:30:00Z,29.6350,-93.6417,2.0,22.3259,11111222 
TABS,ioos:station:wmo:42051:1,2011-05-15T07:00:00Z,29.6350,-93.6417,2.0,22.412,11111222 
TABS,ioos:station:wmo:42051:1,2011-05-15T07:30:00Z,29.6350,-93.6417,2.0,22.5004,11111222 
TABS,ioos:station:wmo:42051:1,2011-05-15T08:00:00Z,29.6350,-93.6417,2.0,22.5299,11111222 
TABS,ioos:station:wmo:42051:1,2011-05-15T08:30:00Z,29.6350,-93.6417,2.0,22.5295,11111222 
TABS,ioos:station:wmo:42051:1,2011-05-15T09:00:00Z,29.6350,-93.6417,2.0,22.5877,11111222 
TABS,ioos:station:wmo:42051:1,2011-05-15T09:30:00Z,29.6350,-93.6417,2.0,22.5659,11111222 
TABS,ioos:station:wmo:42051:1,2011-05-15T10:00:00Z,29.6350,-93.6417,2.0,22.5093,11111222 
TABS,ioos:station:wmo:42051:1,2011-05-15T10:30:00Z,29.6350,-93.6417,2.0,22.5423,11111222 
TABS,ioos:station:wmo:42051:1,2011-05-15T11:00:00Z,29.6350,-93.6417,2.0,22.5161,11111222 